• în România
  • Lista ţărilor
  • Pe 7 zile
  • Temperatura apei
  • Hartă satelitară
  • Meteo pe hartă
  • Widget-uri
  • user-avatar
    Intrare

    Meteo pe oră la Solden

    Astăzi, 25 Iunie, Luni

    Timp Temperatura Precipitaţii Vânt Presiune Umiditate
    00:00 +4°C° 0,4 mm 1 m/s 583 mmHg 92%
    01:00 +5°C° 0 mm 1 m/s 583 mmHg 93%
    02:00 +3°C° 0,3 mm 2 m/s 583 mmHg 94%
    03:00 +3°C° 0,3 mm 2 m/s 583 mmHg 94%
    04:00 +2°C° 0,3 mm 2 m/s 583 mmHg 94%
    05:00 +3°C° 0,1 mm 2 m/s 583 mmHg 90%
    06:00 +4°C° 0,1 mm 2 m/s 584 mmHg 86%
    07:00 +5°C° 0 mm 2 m/s 584 mmHg 83%
    08:00 +6°C° 0,2 mm 2 m/s 585 mmHg 76%
    09:00 +7°C° 0,2 mm 2 m/s 586 mmHg 70%
    10:00 +8°C° 0,2 mm 2 m/s 586 mmHg 63%
    11:00 +9°C° 0,3 mm 2 m/s 587 mmHg 59%
    12:00 +10°C° 0,3 mm 3 m/s 587 mmHg 55%
    13:00 +10°C° 0 mm 3 m/s 588 mmHg 55%
    14:00 +10°C° 0,2 mm 3 m/s 588 mmHg 53%
    15:00 +11°C° 0,2 mm 3 m/s 588 mmHg 51%
    16:00 +11°C° 0,2 mm 3 m/s 588 mmHg 48%
    17:00 +10°C° 0,1 mm 2 m/s 588 mmHg 55%
    18:00 +9°C° 0,1 mm 2 m/s 587 mmHg 61%
    19:00 +8°C° 0,1 mm 2 m/s 587 mmHg 67%
    20:00 +6°C° 0 mm 2 m/s 586 mmHg 74%
    21:00 +4°C° 0 mm 2 m/s 586 mmHg 81%
    22:00 +4°C° 0 mm 1 m/s 585 mmHg 89%
    23:00 +3°C° 0 mm 1 m/s 585 mmHg 90%

    Mâine, 26 Iunie, Marţi

    Timp Temperatura Precipitaţii Vânt Presiune Umiditate
    00:00 +3°C° 0 mm 1 m/s 585 mmHg 90%
    01:00 +2°C° 0 mm 1 m/s 585 mmHg 91%
    02:00 +2°C° 0 mm 1 m/s 585 mmHg 91%
    03:00 +1°C° 0 mm 1 m/s 584 mmHg 90%
    04:00 +1°C° 0 mm 1 m/s 584 mmHg 90%
    05:00 +3°C° 0 mm 1 m/s 585 mmHg 81%
    06:00 +5°C° 0 mm 1 m/s 586 mmHg 72%
    07:00 +5°C° 0 mm 2 m/s 586 mmHg 63%
    08:00 +8°C° 0 mm 2 m/s 587 mmHg 55%
    09:00 +10°C° 0 mm 2 m/s 588 mmHg 47%
    10:00 +13°C° 0 mm 2 m/s 589 mmHg 39%
    11:00 +14°C° 0 mm 2 m/s 589 mmHg 38%
    12:00 +15°C° 0 mm 2 m/s 590 mmHg 37%
    13:00 +16°C° 0 mm 2 m/s 590 mmHg 36%
    14:00 +14°C° 0 mm 3 m/s 589 mmHg 39%
    15:00 +14°C° 0 mm 3 m/s 589 mmHg 42%
    16:00 +14°C° 0 mm 3 m/s 589 mmHg 44%
    17:00 +13°C° 0 mm 3 m/s 588 mmHg 53%
    18:00 +12°C° 0 mm 2 m/s 588 mmHg 61%
    19:00 +10°C° 0 mm 2 m/s 587 mmHg 69%
    20:00 +8°C° 0 mm 2 m/s 587 mmHg 76%
    21:00 +7°C° 0 mm 2 m/s 586 mmHg 83%
    22:00 +5°C° 0 mm 2 m/s 586 mmHg 90%
    23:00 +5°C° 0 mm 2 m/s 586 mmHg 91%

    Poimâine, 27 Iunie, Miercuri

    Timp Temperatura Precipitaţii Vânt Presiune Umiditate
    00:00 +4°C° 0 mm 2 m/s 585 mmHg 91%
    01:00 +4°C° 0 mm 2 m/s 585 mmHg 92%
    02:00 +3°C° 0 mm 2 m/s 585 mmHg 92%
    03:00 +3°C° 0 mm 2 m/s 584 mmHg 92%
    04:00 +3°C° 0 mm 2 m/s 584 mmHg 92%
    05:00 +4°C° 0 mm 2 m/s 584 mmHg 84%
    06:00 +5°C° 0 mm 2 m/s 585 mmHg 77%
    07:00 +7°C° 0 mm 2 m/s 586 mmHg 69%
    08:00 +8°C° 0 mm 2 m/s 586 mmHg 59%
    09:00 +10°C° 0 mm 2 m/s 587 mmHg 49%
    10:00 +12°C° 0 mm 3 m/s 588 mmHg 40%
    11:00 +12°C° 0 mm 3 m/s 588 mmHg 39%
    12:00 +13°C° 0 mm 3 m/s 588 mmHg 39%
    13:00 +13°C° 0 mm 3 m/s 588 mmHg 39%
    14:00 +13°C° 0,3 mm 3 m/s 587 mmHg 41%
    15:00 +12°C° 0,3 mm 4 m/s 587 mmHg 44%
    16:00 +11°C° 0,3 mm 4 m/s 586 mmHg 47%
    17:00 +10°C° 0,2 mm 3 m/s 586 mmHg 51%
    18:00 +9°C° 0,2 mm 3 m/s 586 mmHg 56%
    19:00 +8°C° 0,2 mm 2 m/s 585 mmHg 60%
    20:00 +6°C° 0 mm 2 m/s 585 mmHg 67%
    21:00 +4°C° 0 mm 2 m/s 584 mmHg 74%
    22:00 +2°C° 0 mm 2 m/s 583 mmHg 81%
    23:00 +2°C° 0 mm 2 m/s 583 mmHg 82%

    28 Iunie, Joi

    Timp Temperatura Precipitaţii Vânt Presiune Umiditate
    00:00 +2°C° 0 mm 2 m/s 583 mmHg 83%
    01:00 +1°C° 0 mm 2 m/s 582 mmHg 83%
    02:00 +1°C° 0 mm 2 m/s 582 mmHg 82%
    03:00 +2°C° 0 mm 2 m/s 582 mmHg 80%
    04:00 +2°C° 0 mm 2 m/s 582 mmHg 78%
    05:00 +3°C° 0 mm 2 m/s 583 mmHg 74%
    06:00 +5°C° 0 mm 2 m/s 583 mmHg 71%
    07:00 +5°C° 0 mm 3 m/s 583 mmHg 67%
    08:00 +8°C° 0,2 mm 3 m/s 584 mmHg 66%
    09:00 +9°C° 0,2 mm 3 m/s 584 mmHg 65%
    10:00 +10°C° 0,2 mm 3 m/s 584 mmHg 64%
    11:00 +10°C° 0,5 mm 3 m/s 584 mmHg 66%
    12:00 +10°C° 0,5 mm 3 m/s 584 mmHg 69%
    13:00 +10°C° 0,5 mm 3 m/s 584 mmHg 71%
    14:00 +10°C° 0,3 mm 3 m/s 584 mmHg 70%
    15:00 +10°C° 0,3 mm 2 m/s 584 mmHg 69%
    16:00 +10°C° 0,3 mm 2 m/s 584 mmHg 68%
    17:00 +10°C° 0,3 mm 2 m/s 584 mmHg 72%
    18:00 +9°C° 0,3 mm 2 m/s 584 mmHg 76%
    19:00 +8°C° 0,3 mm 2 m/s 584 mmHg 80%
    20:00 +7°C° 0,1 mm 2 m/s 583 mmHg 83%
    21:00 +6°C° 0,1 mm 2 m/s 583 mmHg 87%
    22:00 +5°C° 0,1 mm 2 m/s 583 mmHg 90%
    23:00 +5°C° 0,1 mm 2 m/s 582 mmHg 90%

    29 Iunie, Vineri

    Timp Temperatura Precipitaţii Vânt Presiune Umiditate
    00:00 +6°C° 0,1 mm 1 m/s 582 mmHg 90%
    01:00 +6°C° 0,1 mm 1 m/s 582 mmHg 90%
    02:00 +6°C° 0 mm 1 m/s 582 mmHg 90%
    03:00 +6°C° 0 mm 1 m/s 582 mmHg 90%
    04:00 +5°C° 0 mm 2 m/s 582 mmHg 90%
    05:00 +7°C° 0 mm 1 m/s 582 mmHg 86%
    06:00 +9°C° 0 mm 1 m/s 583 mmHg 82%
    07:00 +10°C° 0 mm 1 m/s 584 mmHg 78%
    08:00 +12°C° 0 mm 1 m/s 585 mmHg 71%
    09:00 +14°C° 0 mm 1 m/s 585 mmHg 64%
    10:00 +16°C° 0 mm 1 m/s 586 mmHg 58%
    11:00 +16°C° 0,2 mm 1 m/s 586 mmHg 57%
    12:00 +16°C° 0,2 mm 1 m/s 586 mmHg 57%
    13:00 +17°C° 0,2 mm 2 m/s 586 mmHg 56%
    14:00 +17°C° 0,7 mm 2 m/s 586 mmHg 57%
    15:00 +17°C° 0,7 mm 2 m/s 586 mmHg 59%
    16:00 +17°C° 0,7 mm 2 m/s 586 mmHg 60%
    17:00 +16°C° 0,7 mm 2 m/s 585 mmHg 66%
    18:00 +15°C° 0,7 mm 1 m/s 585 mmHg 71%
    19:00 +14°C° 0,7 mm 1 m/s 585 mmHg 77%
    20:00 +12°C° 0,4 mm 1 m/s 584 mmHg 82%
    21:00 +11°C° 0,4 mm 1 m/s 584 mmHg 86%
    22:00 +9°C° 0,4 mm 1 m/s 584 mmHg 90%
    23:00 +9°C° 0,1 mm 1 m/s 583 mmHg 91%

    30 Iunie, Sâmbătă

    Timp Temperatura Precipitaţii Vânt Presiune Umiditate
    00:00 +8°C° 0,1 mm 1 m/s 583 mmHg 91%
    01:00 +8°C° 0,1 mm 1 m/s 583 mmHg 92%
    02:00 +8°C° 0 mm 1 m/s 583 mmHg 91%
    03:00 +7°C° 0 mm 1 m/s 583 mmHg 91%
    04:00 +7°C° 0 mm 1 m/s 583 mmHg 91%
    05:00 +9°C° 0 mm 1 m/s 584 mmHg 85%
    06:00 +11°C° 0 mm 1 m/s 585 mmHg 79%
    07:00 +12°C° 0 mm 0 m/s 586 mmHg 73%
    08:00 +14°C° 0 mm 0 m/s 587 mmHg 66%
    09:00 +18°C° 0 mm 1 m/s 588 mmHg 58%
    10:00 +19°C° 0 mm 1 m/s 589 mmHg 51%
    11:00 +20°C° 0,8 mm 1 m/s 589 mmHg 51%
    12:00 +20°C° 0,8 mm 1 m/s 589 mmHg 51%
    13:00 +19°C° 0,8 mm 2 m/s 589 mmHg 51%
    14:00 +19°C° 1,5 mm 2 m/s 588 mmHg 54%
    15:00 +18°C° 1,5 mm 2 m/s 588 mmHg 58%
    16:00 +18°C° 1,5 mm 2 m/s 588 mmHg 61%
    17:00 +18°C° 1,1 mm 1 m/s 588 mmHg 67%
    18:00 +16°C° 1,1 mm 1 m/s 587 mmHg 74%
    19:00 +15°C° 1,1 mm 1 m/s 587 mmHg 80%
    20:00 +13°C° 0,8 mm 1 m/s 587 mmHg 83%
    21:00 +12°C° 0,8 mm 1 m/s 586 mmHg 87%
    22:00 +11°C° 0,8 mm 1 m/s 586 mmHg 90%
    23:00 +10°C° 0,3 mm 1 m/s 586 mmHg 91%
    Arată mai mult